Regional Weather Roundup
Issued by NWS Burlington, VT

Home | Current Version | Previous Version | Text Only | Print | Product List | Glossary On
Versions: 1 2 3 4 5 6 7 8 9 10 11 12 13 14 15 16 17 18 19 20 21 22 23 24 25 26 27 28 29 30 31 32 33 34 35 36 37 38 39 40 41 42 43 44 45 46 47 48 49 50
000
ASUS41 KBTV 250130
RWRBTV
VERMONT REGIONAL WEATHER ROUNDUP
NATIONAL WEATHER SERVICE BURLINGTON VT
900 PM EDT MON APR 24 2017

NOTE: "FAIR" INDICATES FEW OR NO CLOUDS BELOW 12,000 FEET WITH NO
SIGNIFICANT WEATHER AND/OR OBSTRUCTIONS TO VISIBILITY.

* THESE REPORTS ARE NOT UNDER NWS QUALITY CONTROL AND/OR DO NOT
  REPORT WEATHER SUCH AS PRECIPITATION AND FOG.

VTZ001>019-250200-
_____VERMONT_____


CITY           SKY/WX    TMP DP  RH WIND       PRES   REMARKS
BURLINGTON     CLEAR     45  26  47 NW7       30.24R
MONTPELIER     CLEAR     50  35  56 N3        30.25R
MORRISVILLE    CLEAR     42  34  73 N5        30.24R
ST. JOHNSBURY*   N/A     51  34  52 MISG      30.21R
LYNDONVILLE*   FAIR      45  32  61 W6        30.24R
MIDDLEBURY*    FAIR      41  31  69 CALM      30.21R
RUTLAND*       CLEAR     46  33  60 N6        30.19R
SPRINGFIELD    CLEAR     61  37  41 VRB6      30.16R
HIGHGATE*      FAIR      42  25  50 N3        30.26R
NEWPORT*       FAIR      41  30  65 N5        30.25R
BENNINGTON     CLEAR     57  39  51 VRB5      30.12R
SUTTON*          N/A     43 N/A N/A MISG        N/A
ISLAND POND*     N/A     37 N/A N/A CALM        N/A
GALLUP MILLS*    N/A     39 N/A N/A MISG        N/A
UNION VILLAGE*   N/A     50 N/A N/A MISG        N/A
MT. MANSFIELD*   N/A     45 N/A N/A W9          N/A

_____LAKE CHAMPLAIN_____


CITY           SKY/WX    TMP DP  RH WIND       PRES   REMARKS
BURTON ISLAND*   N/A     43  32  65 NE1         N/A
COLCHESTER RF*   N/A     43  34  70 N9          N/A
DIAMOND ISL*     N/A     46  28  49 N17         N/A

$$

NYZ007-026>031-035-052-083-087-250200-
_____NORTHERN NEW YORK_____


CITY           SKY/WX    TMP DP  RH WIND       PRES   REMARKS
PLATTSBURGH    CLEAR     41  26  55 NW5       30.25R
SARANAC LAKE   CLEAR     42  30  62 E8        30.18R
MASSENA        MOCLDY    45  26  47 NE10      30.24R
OGDENSBURG*    FAIR      44  31  59 NE7       30.20S
POTSDAM*       CLEAR     45  32  61 E7        30.21R
STARK FALLS*     N/A     43 N/A N/A N2          N/A
WATERTOWN      CLEAR     48  33  56 NE10      30.14R
FT DRUM        CLEAR     48  30  50 NE9       30.15R
ALBANY         CLOUDY    57  37  47 NE10      30.15R
GLENS FALLS    CLEAR     50  33  52 NE7       30.17R

$$
NHZ002-005-011-250200-
_____NEW HAMPSHIRE_____


CITY           SKY/WX    TMP DP  RH WIND       PRES   REMARKS
LEBANON        CLEAR     60  38  43 NE7       30.17R
KEENE          PTCLDY    55  40  56 S5        30.15R
MT WASHINGTON  MOCLDY    34  30  86 VRB5        N/A  WCI  30
PLYMOUTH       FAIR      52  42  70 CALM      30.20R
WHITEFIELD     CLEAR     44  35  70 CALM      30.22R

$$

_____REGIONAL QUEBEC LOCATIONS_____


CITY           SKY/WX    TMP DP  RH WIND       PRES   REMARKS
MONTREAL       PTCLDY    45  19  36 E9        30.28R
QUEBEC CITY    PTCLDY    37  10  32 W6        30.31R
SHERBROOKE     CLEAR     41  18  38 N3        30.26R

_____REGIONAL ONTARIO LOCATIONS_____


CITY           SKY/WX    TMP DP  RH WIND       PRES   REMARKS
OTTAWA         PTCLDY    45  25  45 NE7       30.23R

______KEY______
VSB  - VISIBILITY IN MILES
WCI  - WIND CHILL INDEX
HX   - HEAT INDEX
$$
NNNN



USA.gov is the U.S. government's official web portal to all federal, state and local government web resources and services.